[[{"header":{"parameterUnit":"m.s-1","parameterCategory":1,"la1":30.2991,"la2":30.254,"lo1":-89.0895,"lo2":-89.0444,"dy":0.0017,"dx":0.0017,"nx":28,"ny":28,"refTime":"2024-05-23T03:00:00:Z","depth":0,"parameterNumber":2,"parameterNumberName":"U-component_of_WINDS"},"data":[0,0,0,0,0,0,0,0,0,0,0,0,0,0,0,0,0,0,0,0,0,0,0,0,0,0,0,0,0,0,0,0,0,0,0,0,0,0,0,0,0,0,0,0,0,0,0,0,0,0,0,0,0,0,0,0,0,0,-1.0834,-1.0831,0,-1.0593,-1.059,-1.0588,-1.0479,-1.048,-1.048,-1.048,-1.0235,-1.0228,-1.0221,0,0,0,0,0,0,0,0,0,0,0,0,0,-1.1203,-1.1197,-1.0834,-1.0831,-1.0828,-1.0593,-1.059,-1.0587,-1.0479,-1.048,-1.048,-1.048,-1.0237,-1.0229,-1.0221,0,0,0,0,0,0,0,0,0,0,0,0,0,-1.1011,-1.1195,-1.0835,-1.0746,-1.0736,-1.0594,-1.059,-1.0586,-1.0479,-1.048,-1.048,-1.048,-1.0239,-1.023,-1.0219,-1.0148,0,0,-1.0188,-1.0184,0,0,0,0,0,0,0,0,-1.1022,-1.0998,-1.0762,-1.0752,-1.074,-1.0567,-1.063,-1.0439,-1.0479,-1.0577,-1.048,-1.0481,-1.0345,-1.0326,-1.028,-1.0137,-1.0126,-1.0187,-1.0181,-1.0177,-1.0174,0,0,0,0,0,0,0,-1.1036,-1.1007,-1.0739,-1.0759,-1.0745,-1.0719,-1.0692,-1.0594,-1.0461,-1.0568,-1.056,-1.0533,-1.0339,-1.029,-1.0273,-1.0123,-1.0188,-1.0179,-1.0172,-1.0168,-0.9911,-0.991,0,0,0,0,0,0,-1.1063,-1.1019,-1.0746,-1.0731,-1.0885,-1.0712,-1.0682,-1.0622,-1.0462,-1.0438,-1.0532,-1.0528,-1.0307,-1.0285,-1.0264,-1.017,-1.0177,-1.0167,-1.0162,-0.9911,-0.991,-0.991,0,0,0,0,0,0,-1.1071,-1.104,-1.0756,-1.0873,-1.0835,-1.0705,-1.0639,-1.0617,-1.0568,-1.0435,-1.0411,-1.0507,-1.0307,-1.0279,-1.0178,-1.0161,-1.0163,-1.0154,-0.9912,-0.9911,-0.991,-0.9983,0,0,0,0,0,0,-1.1083,-1.1043,-1.1014,-1.0873,-1.0829,-1.0673,-1.0637,-1.0612,-1.055,-1.0543,-1.0404,-1.0382,-1.0305,-1.0194,-1.0168,-1.0147,-1.0146,-0.9913,-0.9912,-0.991,-0.9982,-0.9985,-0.9987,0,0,0,0,0,-1.1096,-1.1044,-1.1013,-1.0981,-1.079,-1.0672,-1.0647,-1.0559,-1.0549,-1.0519,-1.0435,-1.0386,-1.0167,-1.0185,-1.0154,-1.013,-0.9914,-0.9912,-0.991,-0.998,-0.9984,-0.9987,0,0,0,0,0,0,-1.1187,-1.1024,-1.0988,-1.0889,-1.0795,-1.0654,-1.0614,-1.0566,-1.0473,-1.047,-1.0365,-1.0335,-1.0244,-1.0177,-1.0199,-1.0053,-1.0036,-1.0029,-1.01,-1.0102,-1.0105,-1.0123,-1.0137,0,0,0,0,0,-1.1196,-1.1113,-1.0976,-1.0902,-1.0857,-1.0744,-1.069,-1.063,-1.0529,-1.0489,-1.0396,-1.0301,-1.021,-1.0153,-1.0062,-0.9972,-0.9941,-0.9941,-0.9944,-0.9946,-0.9941,-0.9889,-0.9887,-0.9904,-0.9904,-0.9904,0,0,-1.1212,-1.1113,-1.1067,-1.0918,-1.0838,-1.0756,-1.0711,-1.0626,-1.0564,-1.0476,-1.0375,-1.0305,-1.0191,-1.0096,-1.0049,-1.0037,-0.9929,-0.9944,-0.9948,-0.994,-0.9887,-0.9886,-0.9884,-0.9903,-0.9903,-0.9903,0,0,-1.12,-1.1117,-1.1046,-1.0968,-1.0848,-1.0774,-1.0758,-1.0624,-1.0574,-1.0471,-1.0403,-1.0329,-1.0175,-1.0097,-1.0038,-1.0,-0.9952,-0.9973,-0.9987,-0.9938,-0.9937,-0.9935,-0.9921,-0.9918,-0.9968,-0.9968,-0.9969,0,-1.1236,-1.1109,-1.1016,-1.0935,-1.0872,-1.0789,-1.0717,-1.0646,-1.0503,-1.0461,-1.045,-1.0256,-1.0174,-1.006,-1.0051,-1.0005,-0.9984,-0.9988,-0.9944,-0.9942,-0.9939,-0.9925,-0.992,-0.9972,-0.9971,-0.9971,-0.9971,0,-1.1159,-1.1072,-1.103,-1.0894,-1.0826,-1.075,-1.0647,-1.059,-1.0537,-1.0465,-1.0362,-1.0261,-1.0149,-1.0118,-1.0065,-0.9996,-0.9993,-0.9965,-0.9945,-0.9942,-0.9927,-0.9921,-0.9976,-0.9975,-0.9974,-0.9973,0,0,-1.1195,-1.1011,-1.0997,-1.0935,-1.0798,-1.0729,-1.0651,-1.0541,-1.0494,-1.0399,-1.0331,-1.0204,-1.0177,-1.011,-1.0048,-1.0005,-0.9982,-0.9982,-0.9978,-0.9985,-0.99,-0.9922,-0.9917,-0.995,-0.9949,-0.9948,-0.991,0,-1.1164,-1.1018,-1.0934,-1.0823,-1.0742,-1.0664,-1.0595,-1.0505,-1.0435,-1.0357,-1.0281,-1.0193,-1.0164,-1.0123,-1.0077,-0.9995,-0.9963,-0.9996,-0.9886,-0.9883,-0.9916,-0.9909,-0.9931,-0.9899,-0.9903,-0.9902,-0.9902,0,-1.1108,-1.1015,-1.0896,-1.0769,-1.0732,-1.0672,-1.0565,-1.0492,-1.0388,-1.0341,-1.0267,-1.0206,-1.0121,-1.011,-0.9992,-1.0016,-0.9967,-0.992,-0.9916,-0.9901,-0.9891,-0.9894,-0.9887,-0.9883,-0.9891,-0.9892,-0.9893,0,-1.1146,-1.0991,-1.09,-1.0849,-1.07,-1.0659,-1.0595,-1.0492,-1.0432,-1.0339,-1.0299,-1.0199,-1.0143,-1.0067,-0.9981,-0.9981,-0.9872,-0.9854,-0.983,-0.9833,-0.9809,-0.9812,-0.9795,-0.978,-0.978,-0.978,-0.978,0,-1.1119,-1.105,-1.0915,-1.0859,-1.078,-1.0684,-1.0608,-1.0538,-1.0447,-1.0377,-1.0304,-1.0239,-1.013,-1.0052,-0.9985,-0.9898,-0.9873,-0.9833,-0.9816,-0.9839,-0.9844,-0.9804,-0.9803,-0.9779,-0.9779,-0.9779,-0.9779,0,-1.1148,-1.1055,-1.095,-1.0818,-1.0783,-1.073,-1.0617,-1.056,-1.0488,-1.04,-1.0374,-1.0261,-1.0166,-1.0073,-0.9946,-0.99,-0.9814,-0.9791,-0.9849,-0.9839,-0.9821,-0.9824,-0.9776,-0.9765,-0.976,-0.976,-0.976,0,-1.1136,-1.1081,-1.0943,-1.089,-1.0828,-1.0744,-1.0683,-1.0588,-1.0527,-1.0406,-1.0364,-1.0264,-1.0179,-1.0032,-0.9938,-0.9841,-0.9815,-0.9805,-0.98,-0.9825,-0.9814,-0.9818,-0.9812,-0.9808,-0.9808,-0.9809,-0.9809,0,-1.1126,-1.1083,-1.0997,-1.0895,-1.0824,-1.074,-1.0653,-1.0614,-1.0503,-1.0439,-1.0341,-1.0275,-1.0146,-1.0047,-0.994,-0.9874,-0.9823,-0.9812,-0.9801,-0.9824,-0.9859,-0.9839,-0.9855,-0.9813,-0.9812,-0.9812,-0.9812,-0.9812,-1.1133,-1.1081,-1.0976,-1.0882,-1.0807,-1.0728,-1.0668,-1.0589,-1.0506,-1.0393,-1.0343,-1.0245,-1.0144,-0.9994,-0.993,-0.9852,-0.9839,-0.9824,-0.982,-0.9817,-0.9822,-0.9873,-0.9832,-0.9832,-0.9832,-0.9832,-0.9831,0,-1.1119,-1.1048,-1.0963,-1.0844,-1.0771,-1.073,-1.0632,-1.0574,-1.0489,-1.0399,-1.0317,-1.0205,-1.011,-1.0011,-0.991,-0.9867,-0.9841,-0.9844,-0.9846,-0.9831,-0.984,-0.9859,-0.9867,-0.9867,-0.9867,-0.9867,-0.9867,-0.9867,-1.1103,-1.1012,-1.0957,-1.0829,-1.0758,-1.0661,-1.0608,-1.0535,-1.0463,-1.0342,-1.0262,-1.0198,-1.0105,-0.9997,-0.9909,-0.9882,-0.9848,-0.9857,-0.9824,-0.9833,-0.9831,-0.9828,-0.9846,-0.9851,-0.9851,-0.9822,-0.9821,-0.9821]},{"header":{"parameterUnit":"m.s-1","parameterCategory":1,"la1":30.2991,"la2":30.254,"lo1":-89.0895,"lo2":-89.0444,"dy":0.0017,"dx":0.0017,"nx":28,"ny":28,"refTime":"2024-05-23T03:00:00:Z","depth":0,"parameterNumber":3,"parameterNumberName":"V-component_of_WINDS"},"data":[0,0,0,0,0,0,0,0,0,0,0,0,0,0,0,0,0,0,0,0,0,0,0,0,0,0,0,0,0,0,0,0,0,0,0,0,0,0,0,0,0,0,0,0,0,0,0,0,0,0,0,0,0,0,0,0,0,0,2.7669,2.7668,0,2.7592,2.7591,2.759,2.7539,2.7538,2.7538,2.7538,2.7455,2.7453,2.7452,0,0,0,0,0,0,0,0,0,0,0,0,0,2.777,2.7769,2.7669,2.7668,2.7667,2.7592,2.7591,2.759,2.7539,2.7538,2.7538,2.7537,2.7456,2.7454,2.7451,0,0,0,0,0,0,0,0,0,0,0,0,0,2.7713,2.7768,2.7669,2.7633,2.7629,2.7592,2.7591,2.759,2.7539,2.7538,2.7538,2.7537,2.7457,2.7454,2.7451,2.7444,0,0,2.7443,2.7441,0,0,0,0,0,0,0,0,2.7716,2.7709,2.7639,2.7635,2.7631,2.7574,2.7596,2.7541,2.7539,2.7573,2.7538,2.7537,2.7495,2.7489,2.7476,2.744,2.7437,2.7442,2.7441,2.7439,2.7439,0,0,0,0,0,0,0,2.772,2.7712,2.7638,2.7638,2.7633,2.7619,2.7611,2.7586,2.7538,2.757,2.7566,2.7558,2.7493,2.7478,2.7473,2.7435,2.7442,2.744,2.7438,2.7437,2.7391,2.7391,0,0,0,0,0,0,2.773,2.7716,2.7641,2.7636,2.7673,2.7618,2.7608,2.7593,2.7538,2.7529,2.7558,2.7556,2.7484,2.7477,2.747,2.7459,2.7439,2.7437,2.7435,2.739,2.7391,2.7391,0,0,0,0,0,0,2.7733,2.7724,2.7644,2.7675,2.7664,2.7617,2.76,2.7592,2.7577,2.7529,2.752,2.7553,2.7483,2.7474,2.7451,2.7455,2.7435,2.7433,2.739,2.739,2.7391,2.7435,0,0,0,0,0,0,2.7736,2.7725,2.7723,2.7675,2.7662,2.7627,2.76,2.7591,2.7573,2.7569,2.7521,2.7513,2.7482,2.7456,2.7448,2.7451,2.7431,2.7389,2.739,2.7391,2.7433,2.7437,2.7441,0,0,0,0,0,2.774,2.7737,2.7723,2.7714,2.7658,2.7628,2.762,2.7585,2.7574,2.757,2.7539,2.7515,2.7456,2.7454,2.7445,2.7447,2.7389,2.739,2.7391,2.7431,2.7437,2.7441,0,0,0,0,0,0,2.7785,2.7731,2.7714,2.7696,2.7667,2.7619,2.7614,2.7591,2.7564,2.7561,2.7518,2.7508,2.7489,2.7465,2.7464,2.7437,2.7419,2.7419,2.7453,2.7458,2.7461,2.7467,2.7428,0,0,0,0,0,2.7794,2.7774,2.7727,2.7716,2.7703,2.7661,2.7646,2.7622,2.759,2.7577,2.7544,2.7513,2.7487,2.7471,2.7445,2.743,2.7418,2.7426,2.743,2.7434,2.7434,2.7424,2.7427,2.7394,2.7394,2.7394,0,0,2.781,2.7778,2.7768,2.7725,2.7699,2.7679,2.7651,2.7631,2.7616,2.7573,2.755,2.7525,2.7487,2.7468,2.7458,2.7448,2.744,2.7435,2.7438,2.7436,2.7425,2.7428,2.7431,2.7395,2.7395,2.7395,0,0,2.783,2.7804,2.7792,2.7767,2.773,2.7702,2.77,2.7655,2.7637,2.7613,2.7581,2.7562,2.7519,2.7493,2.7475,2.7486,2.7462,2.7479,2.7499,2.749,2.7492,2.7495,2.7499,2.7501,2.7479,2.7479,2.7479,0,2.7855,2.7825,2.7789,2.7771,2.7753,2.7715,2.7702,2.768,2.7635,2.7623,2.7613,2.7559,2.753,2.7505,2.7508,2.7494,2.749,2.7484,2.7495,2.7497,2.7498,2.7502,2.7503,2.7481,2.7481,2.7481,2.7481,0,2.7857,2.7837,2.7832,2.7791,2.7772,2.7757,2.7718,2.7704,2.7681,2.7655,2.7631,2.7596,2.7562,2.7555,2.7532,2.7526,2.7521,2.7504,2.7485,2.7504,2.7507,2.7508,2.7484,2.7484,2.7483,2.7482,0,0,2.7903,2.7844,2.7842,2.7823,2.7779,2.7762,2.7746,2.7714,2.7702,2.7673,2.7657,2.7622,2.7606,2.7585,2.7559,2.7552,2.7563,2.7535,2.7533,2.7541,2.7555,2.7569,2.7571,2.7547,2.7548,2.7548,2.7558,0,2.7917,2.7886,2.7853,2.7833,2.7814,2.7778,2.7763,2.7734,2.7709,2.7688,2.766,2.7636,2.7616,2.7604,2.7595,2.7564,2.7565,2.7563,2.7532,2.7531,2.7543,2.7572,2.7586,2.7598,2.7559,2.7559,2.7559,0,2.7928,2.7902,2.788,2.7839,2.7829,2.7817,2.7785,2.7766,2.7733,2.7715,2.7692,2.7665,2.7645,2.7629,2.7601,2.76,2.7585,2.7568,2.7568,2.7563,2.7546,2.7568,2.7601,2.7602,2.756,2.756,2.756,0,2.7964,2.7923,2.7905,2.789,2.7841,2.7833,2.7812,2.7778,2.7761,2.7733,2.7722,2.7692,2.7675,2.7652,2.7618,2.7609,2.7593,2.7574,2.7577,2.7578,2.7575,2.7576,2.7606,2.7566,2.7566,2.7566,2.7566,0,2.7982,2.7971,2.7921,2.791,2.7895,2.7858,2.7845,2.782,2.7791,2.7774,2.774,2.7725,2.768,2.7659,2.7632,2.7613,2.7605,2.759,2.7583,2.7593,2.7595,2.7583,2.7581,2.7567,2.7567,2.7566,2.7566,0,2.802,2.7986,2.7964,2.792,2.7908,2.79,2.7862,2.7849,2.7823,2.7802,2.7795,2.7752,2.7726,2.769,2.7652,2.7633,2.7618,2.7607,2.763,2.7626,2.7631,2.7631,2.7654,2.7655,2.7615,2.7616,2.7616,0,2.8034,2.8025,2.798,2.7966,2.7947,2.7926,2.7909,2.7871,2.7855,2.7816,2.7809,2.778,2.7756,2.7715,2.7681,2.7652,2.7639,2.7649,2.7635,2.7645,2.764,2.7641,2.7639,2.7653,2.7654,2.7654,2.7654,0,2.8063,2.8047,2.8024,2.7995,2.7976,2.7952,2.7926,2.7917,2.7873,2.7857,2.783,2.7811,2.7773,2.7745,2.7712,2.7689,2.7665,2.766,2.7659,2.7669,2.7683,2.7676,2.764,2.7659,2.7659,2.7658,2.7658,2.7658,2.8089,2.8079,2.8046,2.8022,2.7998,2.7975,2.7961,2.7933,2.7911,2.7878,2.7857,2.7832,2.7798,2.7751,2.773,2.7709,2.7699,2.7698,2.7697,2.7697,2.7701,2.7687,2.7703,2.7702,2.7702,2.7702,2.7702,0,2.8116,2.8093,2.8071,2.8036,2.8017,2.7997,2.7967,2.7952,2.7931,2.7902,2.7879,2.7849,2.7822,2.7785,2.7756,2.7746,2.7734,2.7739,2.7739,2.7735,2.7712,2.7716,2.775,2.775,2.775,2.775,2.775,2.7749,2.8128,2.811,2.809,2.806,2.8037,2.8012,2.7997,2.7975,2.7952,2.792,2.7898,2.7875,2.7843,2.7811,2.7785,2.7775,2.7766,2.7775,2.7761,2.774,2.7736,2.7732,2.7735,2.7773,2.7773,2.7786,2.7786,2.7786]}]]